Bellingham, WA
on Saturday, November 17, 2012

Saturday
Previous Day Next Day
Daily Summary
 ActualAverageRecord
Temperature
Mean Temperature °F 43°F  
Max Temperature 60°F 49°F 65°F (1995)
Min Temperature 44°F 37°F 13°F (1955)
Degree Days
Heating Degree Days 13 22  
Month to date heating degree days 345  
Cooling Degree Days 0 0  
Month to date cooling degree days 0  
Year to date cooling degree days 42  
Growing Degree Days2 (Base °F )  
Moisture
Dew Point 42°F   
Average Humidity 77    
Maximum Humidity 93    
Minimum Humidity 51    
Precipitation
Precipitation 0.45 in 0.20 in 1.45 in (1959)
Month to date precipitation 3.35  
Year to date precipitation 29.16  
Wind
Wind Speed 13 mph   
Max Wind Speed 25 mph   
Max Gust Speed 37 mph   
Visibility 8 miles   
Events Rain   

Key: T is trace of precipitation, MM is missing value
Source: NWS Daily Summary
Time(PST)TemperatureDew PointHumidity Pressure Visibility Wind DirectionWind SpeedGust SpeedPrecipitationEvents Conditions
12:53 AM 55.9°F 43.0°F 62% 29.64 in 10.0 miles SE 16.1 mph 26.5 mph N/A   Overcast
1:53 AM 55.9°F 42.1°F 60% 29.61 in 10.0 miles SE 25.3 mph 33.4 mph N/A   Overcast
2:53 AM 57.0°F 42.1°F 57% 29.59 in 10.0 miles SE 20.7 mph 28.8 mph N/A   Mostly Cloudy
3:53 AM 57.0°F 42.1°F 57% 29.57 in 10.0 miles SE 17.3 mph 28.8 mph 0.00 in   Mostly Cloudy
4:53 AM 54.0°F 44.1°F 69% 29.55 in 10.0 miles SE 11.5 mph - 0.00 in   Overcast
5:53 AM 55.0°F 43.0°F 64% 29.53 in 10.0 miles ESE 11.5 mph 18.4 mph 0.00 in   Overcast
6:53 AM 50.0°F 44.1°F 80% 29.52 in 10.0 miles South 11.5 mph - 0.00 in   Overcast
7:53 AM 48.9°F 44.1°F 83% 29.51 in 10.0 miles Calm Calm - 0.00 in   Overcast
8:53 AM 55.9°F 42.1°F 60% 29.47 in 10.0 miles ESE 17.3 mph 25.3 mph N/A   Overcast
9:53 AM 59.0°F 42.1°F 53% 29.44 in 10.0 miles SE 19.6 mph 28.8 mph N/A   Overcast
10:53 AM 60.1°F 42.1°F 51% 29.43 in 10.0 miles SSE 19.6 mph 36.8 mph N/A   Overcast
11:53 AM 52.0°F 45.0°F 77% 29.47 in 6.0 miles South 11.5 mph 20.7 mph 0.00 in Rain Light Rain
12:53 PM 48.0°F 45.0°F 89% 29.51 in 3.0 miles West 5.8 mph - 0.05 in Rain Rain
1:43 PM 46.4°F 44.6°F 93% 29.50 in 3.0 miles Calm Calm - 0.11 in Rain Light Rain
1:45 PM 46.4°F 44.6°F 93% 29.50 in 3.0 miles Calm Calm - 0.11 in Rain Light Rain
1:53 PM 46.9°F 43.0°F 86% 29.53 in 3.0 miles Variable 3.5 mph - 0.11 in Rain Light Rain
2:02 PM 46.4°F 42.8°F 87% 29.51 in 3.0 miles SSW 3.5 mph - 0.01 in Rain Light Rain
2:17 PM 46.4°F 42.8°F 87% 29.51 in 2.5 miles Calm Calm - 0.05 in Rain Rain
2:26 PM 46.4°F 44.6°F 93% 29.51 in 3.0 miles SE 4.6 mph - 0.07 in Rain Rain
2:38 PM 46.4°F 42.8°F 87% 29.51 in 4.0 miles ESE 6.9 mph - 0.10 in Rain Rain
2:53 PM 46.0°F 43.0°F 89% 29.54 in 4.0 miles ESE 5.8 mph - 0.13 in Rain Rain
3:53 PM 45.0°F 43.0°F 93% 29.56 in 10.0 miles Calm Calm - 0.03 in Rain Light Rain
4:53 PM 46.0°F 43.0°F 89% 29.58 in 10.0 miles ESE 8.1 mph - 0.00 in Rain Light Rain
5:00 PM 46.4°F 42.8°F 87% 29.57 in 10.0 miles ESE 10.4 mph - 0.00 in Rain Light Rain
5:53 PM 45.0°F 41.0°F 86% 29.60 in 5.0 miles SE 17.3 mph - 0.04 in Rain Light Rain
6:25 PM 44.6°F 42.8°F 93% 29.59 in 4.0 miles SSE 5.8 mph - 0.05 in Rain Rain
6:53 PM 46.0°F 41.0°F 83% 29.60 in 10.0 miles SSE 13.8 mph 18.4 mph 0.09 in Rain Light Rain
7:53 PM 46.9°F 39.9°F 77% 29.61 in 10.0 miles SE 16.1 mph 31.1 mph 0.00 in   Overcast
8:53 PM 46.9°F 39.0°F 74% 29.62 in 10.0 miles SSE 13.8 mph 24.2 mph N/A   Mostly Cloudy
9:53 PM 46.9°F 39.0°F 74% 29.63 in 10.0 miles SSE 17.3 mph 26.5 mph 0.00 in Rain Light Rain
10:42 PM 46.4°F 39.2°F 76% 29.62 in 10.0 miles SSE 17.3 mph 31.1 mph N/A   Overcast
10:53 PM 46.4°F 39.2°F 76% 29.63 in 10.0 miles SSE 16.1 mph 26.5 mph N/A   Overcast
11:04 PM 46.4°F 39.2°F 76% 29.63 in 10.0 miles SSE 17.3 mph 29.9 mph N/A   Overcast
11:11 PM 46.4°F 39.2°F 76% 29.62 in 10.0 miles SSE 16.1 mph 25.3 mph N/A   Overcast
11:53 PM 46.9°F 39.0°F 74% 29.66 in 10.0 miles SSE 17.3 mph 25.3 mph N/A   Mostly Cloudy
Moon Phase
Nov. 17 Nov. 20 Nov. 28 Dec. 06 Dec. 13
Sunrise:07:23 AM (PST) Moon Rise:11:11 AM (PST)11/17
Sunset:04:26 PM (PST) Moon Set:08:45 PM (PST)11/17

Copyright © 2014 The Weather Underground, Inc.